This is the latest recevied weather packets stored in our database for station/object N6RDS-8. If no packets are shown the sender has not sent any weather packets the latest 10 day(s).
| Time | Temp. | Humidity | Pressure | Rain* | Wind** | Luminosity | Snow |
|---|---|---|---|---|---|---|---|
| 1777787644 | 16.11° C | 58% | 1019.6 hPa | 0 mm | - | 0 W/m² | - |
| 1777787340 | 15.56° C | 58% | 1019.7 hPa | 0 mm | - | 0 W/m² | - |
| 1777787036 | 15.56° C | 59% | 1019.7 hPa | 0 mm | - | 0 W/m² | - |
| 1777786735 | 15.56° C | 60% | 1019.9 hPa | 0 mm | - | 0 W/m² | - |
| 1777786432 | 15.56° C | 59% | 1019.7 hPa | 0 mm | - | 0 W/m² | - |
| 1777786128 | 15.56° C | 59% | 1019.9 hPa | 0 mm | - | 0 W/m² | - |
| 1777785825 | 16.11° C | 58% | 1019.9 hPa | 0 mm | - | 0 W/m² | - |
| 1777785522 | 16.11° C | 57% | 1019.7 hPa | 0 mm | - | 0 W/m² | - |
| 1777785218 | 17.22° C | 54% | 1019.7 hPa | 0 mm | - | 0 W/m² | - |
| 1777784915 | 17.78° C | 54% | 1019.6 hPa | 0 mm | - | 0 W/m² | - |
| 1777784611 | 18.33° C | 52% | 1019.5 hPa | 0 mm | - | 0 W/m² | - |
| 1777784309 | 18.89° C | 51% | 1019.6 hPa | 0 mm | - | 0 W/m² | - |
| 1777784007 | 19.44° C | 48% | 1019.5 hPa | 0 mm | - | 0 W/m² | - |
| 1777783703 | 19.44° C | 48% | 1019.4 hPa | 0 mm | - | 0 W/m² | - |
| 1777783400 | 20° C | 47% | 1019.4 hPa | 0 mm | - | 0 W/m² | - |
| 1777783097 | 20° C | 47% | 1019.3 hPa | 0 mm | - | 0 W/m² | - |
| 1777782794 | 20° C | 47% | 1019 hPa | 0 mm | - | 0 W/m² | - |
| 1777782490 | 20.56° C | 46% | 1018.9 hPa | 0 mm | - | 0 W/m² | - |
| 1777782187 | 20.56° C | 46% | 1018.8 hPa | 0 mm | - | 0 W/m² | - |
| 1777781883 | 20.56° C | 46% | 1018.9 hPa | 0 mm | - | 0 W/m² | - |
| 1777781580 | 20.56° C | 46% | 1018.9 hPa | 0 mm | - | 0 W/m² | - |
| 1777781278 | 20.56° C | 46% | 1018.8 hPa | 0 mm | - | 0 W/m² | - |
| 1777780976 | 20.56° C | 46% | 1018.8 hPa | 0 mm | - | 0 W/m² | - |
| 1777780672 | 20° C | 46% | 1018.8 hPa | 0 mm | - | 0 W/m² | - |
| 1777780369 | 20° C | 45% | 1018.8 hPa | 0 mm | - | 0 W/m² | - |
* Rain latest hour (hover to see other rain measurements)
** Current wind speed in m/s (hover to see current wind gust speed)